When you browse on this site, cookies collect data to enhance your experience and personalize the content and advertising you see.
Visit our Privacy Policy to learn more. By continuing to use the site, you agree to this use of cookies and data.
  • In Österreich
  • Länderverzeichnis
  • Für 7 Tage
  • Wassertemperatur
  • Satellitenkarten
  • Wetterkarte
  • News
  • Widgets
  • user-avatar
    Anmelden

    Stündliche Wetter Batina

    Heute, 23 Januar, Mittwoch

    Zeit Temperatur Niederschläge Wind Luftdruck Luftfeuchtigkeit
    00:00 0°C° 0 mm 3 m/S 662 mmHg 79%
    01:00 -1°C° 0 mm 2 m/S 661 mmHg 79%
    02:00 -1°C° 0 mm 2 m/S 661 mmHg 78%
    03:00 -1°C° 0 mm 2 m/S 660 mmHg 77%
    04:00 -1°C° 0 mm 2 m/S 660 mmHg 79%
    05:00 -1°C° 0 mm 3 m/S 660 mmHg 81%
    06:00 -1°C° 0 mm 3 m/S 659 mmHg 82%
    07:00 0°C° 0.1 mm 3 m/S 660 mmHg 81%
    08:00 0°C° 0.1 mm 4 m/S 660 mmHg 79%
    09:00 +1°C° 0.1 mm 4 m/S 660 mmHg 77%
    10:00 +2°C° 0 mm 5 m/S 660 mmHg 72%
    11:00 +3°C° 0 mm 6 m/S 659 mmHg 66%
    12:00 +3°C° 0 mm 7 m/S 659 mmHg 61%
    13:00 +4°C° 0.1 mm 7 m/S 659 mmHg 61%
    14:00 +4°C° 0.1 mm 7 m/S 658 mmHg 62%
    15:00 +4°C° 0.1 mm 7 m/S 658 mmHg 63%
    16:00 +3°C° 1.3 mm 7 m/S 657 mmHg 71%
    17:00 +3°C° 1.3 mm 7 m/S 657 mmHg 79%
    18:00 +2°C° 1.3 mm 7 m/S 656 mmHg 87%
    19:00 +2°C° 0.5 mm 7 m/S 656 mmHg 88%
    20:00 +2°C° 0.5 mm 7 m/S 656 mmHg 90%
    21:00 +2°C° 0.5 mm 7 m/S 656 mmHg 91%
    22:00 +2°C° 1 mm 7 m/S 655 mmHg 91%
    23:00 +2°C° 1 mm 6 m/S 655 mmHg 92%

    Morgen, 24 Januar, Donnerstag

    Zeit Temperatur Niederschläge Wind Luftdruck Luftfeuchtigkeit
    00:00 +2°C° 1 mm 6 m/S 655 mmHg 92%
    01:00 +1°C° 0.8 mm 9 m/S 654 mmHg 89%
    02:00 +1°C° 0.8 mm 11 m/S 654 mmHg 85%
    03:00 0°C° 0.8 mm 13 m/S 654 mmHg 82%
    04:00 -1°C° 0.8 mm 12 m/S 653 mmHg 85%
    05:00 -2°C° 0.8 mm 11 m/S 653 mmHg 88%
    06:00 -3°C° 0.8 mm 10 m/S 653 mmHg 91%
    07:00 -3°C° 1.1 mm 10 m/S 654 mmHg 92%
    08:00 -4°C° 1.1 mm 9 m/S 654 mmHg 92%
    09:00 -4°C° 1.1 mm 9 m/S 655 mmHg 92%
    10:00 -4°C° 0.2 mm 11 m/S 655 mmHg 87%
    11:00 -5°C° 0.2 mm 13 m/S 656 mmHg 82%
    12:00 -5°C° 0.2 mm 15 m/S 656 mmHg 77%
    13:00 -5°C° 0 mm 15 m/S 656 mmHg 77%
    14:00 -5°C° 0 mm 14 m/S 656 mmHg 78%
    15:00 -5°C° 0 mm 14 m/S 656 mmHg 79%
    16:00 -5°C° 0 mm 12 m/S 657 mmHg 82%
    17:00 -6°C° 0 mm 11 m/S 657 mmHg 86%
    18:00 -5°C° 0 mm 9 m/S 657 mmHg 89%
    19:00 -5°C° 0 mm 9 m/S 658 mmHg 90%
    20:00 -5°C° 0 mm 9 m/S 658 mmHg 91%
    21:00 -5°C° 0 mm 8 m/S 659 mmHg 92%
    22:00 -5°C° 0 mm 8 m/S 659 mmHg 92%
    23:00 -5°C° 0 mm 8 m/S 659 mmHg 92%

    übermorgen, 25 Januar, Freitag

    Zeit Temperatur Niederschläge Wind Luftdruck Luftfeuchtigkeit
    00:00 -5°C° 0 mm 8 m/S 659 mmHg 93%
    01:00 -5°C° 0 mm 8 m/S 660 mmHg 93%
    02:00 -5°C° 0 mm 8 m/S 660 mmHg 93%
    03:00 -5°C° 0 mm 8 m/S 660 mmHg 93%
    04:00 -5°C° 0.1 mm 8 m/S 660 mmHg 93%
    05:00 -5°C° 0.1 mm 8 m/S 661 mmHg 93%
    06:00 -5°C° 0.1 mm 8 m/S 661 mmHg 93%
    07:00 -5°C° 0.2 mm 8 m/S 662 mmHg 91%
    08:00 -5°C° 0.2 mm 9 m/S 662 mmHg 89%
    09:00 -4°C° 0.2 mm 10 m/S 663 mmHg 88%
    10:00 -4°C° 0.2 mm 10 m/S 663 mmHg 86%
    11:00 -4°C° 0.2 mm 10 m/S 663 mmHg 84%
    12:00 -3°C° 0.2 mm 10 m/S 663 mmHg 82%
    13:00 -3°C° 0 mm 10 m/S 663 mmHg 80%
    14:00 -3°C° 0 mm 10 m/S 663 mmHg 78%
    15:00 -1°C° 0 mm 9 m/S 663 mmHg 76%
    16:00 -2°C° 0 mm 8 m/S 663 mmHg 79%
    17:00 -3°C° 0 mm 6 m/S 663 mmHg 82%
    18:00 -2°C° 0 mm 5 m/S 662 mmHg 85%
    19:00 -2°C° 0 mm 5 m/S 663 mmHg 84%
    20:00 -2°C° 0 mm 5 m/S 663 mmHg 82%
    21:00 -2°C° 0 mm 5 m/S 663 mmHg 81%
    22:00 -2°C° 0 mm 5 m/S 663 mmHg 84%
    23:00 -1°C° 0 mm 5 m/S 663 mmHg 86%

    26 Januar, Samstag

    Zeit Temperatur Niederschläge Wind Luftdruck Luftfeuchtigkeit
    00:00 -1°C° 0 mm 4 m/S 663 mmHg 89%
    01:00 -1°C° 0.2 mm 5 m/S 663 mmHg 92%
    02:00 0°C° 0.2 mm 5 m/S 663 mmHg 94%
    03:00 -1°C° 0.2 mm 6 m/S 663 mmHg 97%
    04:00 -1°C° 0.1 mm 7 m/S 664 mmHg 96%
    05:00 -3°C° 0.1 mm 9 m/S 664 mmHg 96%
    06:00 -3°C° 0.1 mm 10 m/S 664 mmHg 95%
    07:00 -3°C° 0.1 mm 11 m/S 665 mmHg 92%
    08:00 -3°C° 0.1 mm 11 m/S 666 mmHg 89%
    09:00 -3°C° 0.1 mm 12 m/S 666 mmHg 86%
    10:00 -2°C° 0 mm 10 m/S 667 mmHg 84%
    11:00 -1°C° 0 mm 8 m/S 667 mmHg 82%
    12:00 0°C° 0 mm 7 m/S 668 mmHg 80%
    13:00 +1°C° 0 mm 6 m/S 668 mmHg 78%
    14:00 +1°C° 0 mm 6 m/S 668 mmHg 76%
    15:00 +1°C° 0 mm 6 m/S 667 mmHg 75%
    16:00 +1°C° 0 mm 5 m/S 668 mmHg 78%
    17:00 0°C° 0 mm 5 m/S 668 mmHg 82%
    18:00 0°C° 0 mm 4 m/S 668 mmHg 86%
    19:00 +1°C° 0 mm 3 m/S 668 mmHg 87%
    20:00 +1°C° 0 mm 3 m/S 668 mmHg 87%
    21:00 +2°C° 0 mm 2 m/S 668 mmHg 88%
    22:00 +1°C° 0 mm 2 m/S 668 mmHg 88%
    23:00 +1°C° 0 mm 2 m/S 668 mmHg 88%

    27 Januar, Sonntag

    Zeit Temperatur Niederschläge Wind Luftdruck Luftfeuchtigkeit
    00:00 -1°C° 0 mm 2 m/S 668 mmHg 87%
    01:00 +1°C° 0 mm 2 m/S 667 mmHg 86%
    02:00 0°C° 0 mm 3 m/S 667 mmHg 84%
    03:00 0°C° 0 mm 3 m/S 667 mmHg 83%
    04:00 0°C° 0 mm 3 m/S 666 mmHg 81%
    05:00 0°C° 0 mm 3 m/S 666 mmHg 79%
    06:00 0°C° 0 mm 3 m/S 666 mmHg 77%
    07:00 +1°C° 0 mm 3 m/S 666 mmHg 77%
    08:00 +2°C° 0 mm 3 m/S 667 mmHg 78%
    09:00 +4°C° 0 mm 3 m/S 667 mmHg 78%
    10:00 +5°C° 0 mm 4 m/S 666 mmHg 75%
    11:00 +6°C° 0 mm 4 m/S 666 mmHg 72%
    12:00 +7°C° 0 mm 4 m/S 666 mmHg 69%
    13:00 +6°C° 0 mm 4 m/S 665 mmHg 69%
    14:00 +6°C° 0 mm 4 m/S 664 mmHg 68%
    15:00 +6°C° 0 mm 5 m/S 664 mmHg 67%
    16:00 +5°C° 0 mm 4 m/S 663 mmHg 70%
    17:00 +4°C° 0 mm 4 m/S 663 mmHg 73%
    18:00 +3°C° 0 mm 3 m/S 663 mmHg 76%
    19:00 +3°C° 0 mm 3 m/S 663 mmHg 74%
    20:00 +3°C° 0 mm 3 m/S 663 mmHg 73%
    21:00 +3°C° 0 mm 4 m/S 663 mmHg 72%
    22:00 +3°C° 0 mm 3 m/S 663 mmHg 74%
    23:00 +2°C° 0 mm 3 m/S 662 mmHg 76%

    28 Januar, Montag

    Zeit Temperatur Niederschläge Wind Luftdruck Luftfeuchtigkeit
    00:00 +3°C° 0 mm 2 m/S 662 mmHg 79%
    01:00 +2°C° 0 mm 3 m/S 662 mmHg 80%
    02:00 +2°C° 0 mm 3 m/S 661 mmHg 82%
    03:00 +2°C° 0 mm 3 m/S 661 mmHg 84%
    04:00 +2°C° 0.3 mm 3 m/S 661 mmHg 87%
    05:00 +2°C° 0.3 mm 3 m/S 661 mmHg 90%
    06:00 +1°C° 0.3 mm 3 m/S 661 mmHg 94%
    07:00 +1°C° 0.6 mm 3 m/S 661 mmHg 92%
    08:00 +1°C° 0.6 mm 3 m/S 661 mmHg 91%
    09:00 0°C° 0.6 mm 3 m/S 661 mmHg 89%
    10:00 0°C° 0.3 mm 3 m/S 661 mmHg 88%
    11:00 0°C° 0.3 mm 3 m/S 661 mmHg 87%
    12:00 0°C° 0.3 mm 3 m/S 661 mmHg 86%
    13:00 +1°C° 0.4 mm 3 m/S 661 mmHg 83%
    14:00 0°C° 0.4 mm 4 m/S 661 mmHg 80%
    15:00 0°C° 0.4 mm 5 m/S 661 mmHg 77%
    16:00 -1°C° 0.1 mm 4 m/S 662 mmHg 80%
    17:00 -1°C° 0.1 mm 3 m/S 662 mmHg 83%
    18:00 -2°C° 0.1 mm 2 m/S 662 mmHg 87%
    19:00 -2°C° 0.1 mm 3 m/S 662 mmHg 87%
    20:00 -2°C° 0.1 mm 3 m/S 662 mmHg 87%
    21:00 -2°C° 0.1 mm 3 m/S 663 mmHg 87%
    22:00 -4°C° 0 mm 3 m/S 662 mmHg 87%
    23:00 -4°C° 0 mm 3 m/S 662 mmHg 88%
    Mehr zeigen